1486976400.22,13637,12.25,74202.0,-1.39,-42.83,-43.41,0,*54
1486976401.51,13638,12.25,74202.0,-1.39,-42.95,-43.55,0,*59
1486976402.8,13639,12.25,74206.8,-1.35,-42.95,-43.55,0,*54
1486976404.06,13640,12.25,74206.5,-1.31,-42.95,-43.49,0,*53
1486976405.32,13641,12.25,74204.3,-1.31,-43.09,-43.49,0,*56
1486976406.58,13642,12.25,74206.5,-1.31,-42.69,-43.35,0,*59
1486976407.83,13643,12.25,74200.8,-1.35,-43.49,-44.01,0,*5F
1486976409.12,13644,12.25,74206.3,-1.35,-42.95,-43.55,0,*5E
1486976410.4,13645,12.25,74200.8,-1.31,-43.29,-43.67,0,*5C
1486976411.69,13646,12.25,74204.8,-1.31,-43.09,-43.55,0,*5C
1486976412.97,13647,12.25,74204.0,-1.31,-43.55,-44.01,0,*52
1486976414.24,13648,12.25,74206.8,-1.31,-43.55,-44.01,0,*5D
1486976415.5,13649,12.25,74200.0,-1.35,-43.49,-44.01,0,*55
1486976416.73,13650,12.25,74206.5,-1.31,-43.49,-43.95,0,*53
1486976418.01,13651,12.25,74200.8,-1.31,-43.55,-44.13,0,*56
1486976419.29,13652,12.25,74204.0,-1.35,-43.55,-44.13,0,*51
1486976420.55,13653,12.25,74202.3,-1.35,-43.75,-44.21,0,*53
1486976421.83,13654,12.25,74202.3,-1.31,-43.29,-43.67,0,*5C
1486976423.08,13655,12.25,74206.0,-1.35,-43.35,-43.81,0,*5C
1486976424.34,13656,12.25,74202.0,-1.31,-43.09,-43.49,0,*50
1486976425.6,13657,12.25,74204.3,-1.31,-43.09,-43.75,0,*5E
1486976426.84,13658,12.25,74202.8,-1.31,-43.35,-43.81,0,*55
1486976428.12,13659,12.25,74202.0,-1.31,-44.13,-44.33,0,*59
1486976429.37,13660,12.25,74206.3,-1.31,-43.49,-44.13,0,*59
1486976430.63,13661,12.25,74206.0,-1.31,-43.15,-43.67,0,*55
1486976431.88,13662,12.25,74206.8,-1.31,-43.75,-44.13,0,*54
1486976433.14,13663,12.25,74206.3,-1.35,-43.09,-43.49,0,*52
1486976434.39,13664,12.25,74204.5,-1.31,-43.49,-43.81,0,*51
1486976435.67,13665,12.25,74204.3,-1.31,-43.67,-44.33,0,*52
1486976436.93,13666,12.25,74206.0,-1.35,-43.35,-43.67,0,*54
1486976438.16,13667,12.25,74208.5,-1.31,-43.15,-43.75,0,*50
1486976439.4,13668,12.25,74206.3,-1.31,-43.35,-43.81,0,*56
1486976440.64,13669,12.25,74206.0,-1.35,-43.35,-43.95,0,*56
1486976441.88,13670,12.25,74206.8,-1.31,-43.35,-43.81,0,*5F
1486976443.14,13671,12.25,74204.5,-1.31,-43.15,-43.55,0,*55
1486976444.42,13672,12.25,74204.8,-1.35,-43.55,-44.21,0,*52
1486976445.64,13673,12.25,74204.0,-1.29,-43.21,-43.87,0,*56
1486976446.93,13674,12.25,74204.5,-1.31,-43.09,-43.55,0,*5D
1486976448.18,13675,12.25,74204.0,-1.31,-43.15,-43.55,0,*51
1486976449.44,13676,12.25,74208.0,-1.31,-42.95,-43.49,0,*56
1486976450.67,13677,12.25,74204.0,-1.31,-43.15,-43.49,0,*5E
1486976451.95,13678,12.25,74206.5,-1.31,-43.55,-44.01,0,*5E
1486976453.17,13679,12.25,74206.0,-1.29,-43.87,-44.33,0,*58
1486976454.4,13680,12.25,74202.8,-1.29,-43.67,-44.07,0,*57
1486976455.63,13681,12.25,74206.8,-1.29,-42.63,-43.29,0,*58
1486976456.83,13682,12.25,74206.0,-1.29,-43.49,-43.87,0,*56
1486976458.06,13683,12.25,74204.3,-1.29,-43.75,-44.33,0,*50
1486976459.29,13684,12.25,74206.0,-1.29,-43.87,-44.33,0,*5A
1486976460.5,13685,12.25,74206.3,-1.29,-43.01,-43.49,0,*5F
1486976461.75,13686,12.25,74204.8,-1.29,-43.21,-43.67,0,*52
1486976463.01,13687,12.25,74200.8,-1.29,-43.67,-44.13,0,*55
1486976464.24,13688,12.25,74206.0,-1.29,-43.61,-44.13,0,*5C
1486976465.47,13689,12.25,74206.3,-1.29,-43.49,-44.13,0,*57
1486976466.72,13690,12.25,74206.5,-1.35,-43.49,-43.81,0,*5E
1486976467.95,13691,12.25,74206.8,-1.31,-43.15,-43.49,0,*56
1486976469.23,13692,12.25,74204.8,-1.35,-43.67,-44.01,0,*5F
1486976470.52,13693,12.25,74208.3,-1.31,-43.09,-43.67,0,*55
1486976471.77,13694,12.25,74206.5,-1.31,-43.75,-44.21,0,*5C
1486976473.03,13695,12.25,74204.5,-1.31,-43.35,-43.67,0,*5C
1486976474.31,13696,12.25,74210.0,-1.31,-43.09,-43.55,0,*51
1486976475.54,13697,12.25,74204.0,-1.29,-43.21,-43.75,0,*51
1486976476.82,13698,12.25,74206.8,-1.31,-43.55,-44.01,0,*50
1486976478.05,13699,12.25,74204.5,-1.31,-43.49,-43.95,0,*56
1486976479.34,13700,12.25,74202.8,-1.31,-43.29,-43.67,0,*5C
1486976480.55,13701,12.25,74204.3,-1.29,-43.01,-43.49,0,*52
1486976481.8,13702,12.25,74204.8,-1.29,-43.21,-43.67,0,*5F
1486976483.04,13703,12.25,74204.0,-1.29,-43.09,-43.49,0,*58
1486976484.25,13704,12.25,74206.8,-1.29,-43.01,-43.49,0,*57
1486976485.51,13705,12.25,74204.3,-1.29,-43.09,-43.67,0,*52
1486976486.77,13706,12.25,74206.5,-1.27,-43.09,-43.61,0,*59
1486976487.98,13707,12.25,74208.5,-1.29,-42.89,-43.49,0,*55
1486976489.22,13708,12.25,74206.5,-1.27,-43.01,-43.41,0,*5D
1486976490.45,13709,12.25,74206.5,-1.29,-43.29,-43.75,0,*5F
1486976491.7,13710,12.31,74210.3,-1.29,-43.21,-43.67,0,*5C
1486976492.96,13711,12.25,74204.3,-1.27,-43.21,-43.61,0,*55
1486976494.19,13712,12.25,74208.5,-1.29,-43.29,-43.75,0,*55
1486976495.44,13713,12.25,74204.3,-1.29,-43.67,-44.13,0,*59
1486976496.67,13714,12.25,74206.3,-1.27,-43.95,-44.53,0,*59
1486976497.9,13715,12.25,74208.0,-1.29,-43.67,-44.07,0,*5A
1486976499.14,13716,12.25,74206.0,-1.27,-43.01,-43.49,0,*5A
1486976500.37,13717,12.25,74208.3,-1.29,-43.09,-43.49,0,*5D
1486976501.66,13718,12.31,74214.3,-1.27,-43.29,-43.67,0,*52
1486976502.94,13719,12.31,74206.5,-1.27,-43.67,-44.13,0,*5D
1486976504.19,13720,12.25,74210.0,-1.27,-43.29,-43.95,0,*54
1486976505.46,13721,12.31,74206.8,-1.27,-43.09,-43.61,0,*5C
1486976506.71,13722,12.31,74208.0,-1.27,-43.29,-43.87,0,*55
1486976507.94,13723,12.25,74204.0,-1.27,-43.49,-43.95,0,*51
1486976509.2,13724,12.25,74206.0,-1.27,-43.09,-43.49,0,*53
1486976510.43,13725,12.25,74206.8,-1.27,-43.49,-43.87,0,*54
1486976511.67,13726,12.31,74206.8,-1.27,-43.61,-43.95,0,*5E
1486976512.93,13727,12.25,74202.8,-1.27,-43.21,-43.75,0,*55
1486976514.16,13728,12.25,74204.5,-1.27,-43.49,-43.95,0,*5A
1486976515.45,13729,12.31,74206.5,-1.27,-43.29,-43.67,0,*50
1486976516.68,13730,12.25,74206.5,-1.27,-43.49,-43.87,0,*50
1486976517.96,13731,12.25,74204.5,-1.27,-43.21,-43.67,0,*51
1486976519.2,13732,12.25,74204.3,-1.27,-43.01,-43.49,0,*5C
1486976520.44,13733,12.25,74204.8,-1.27,-43.01,-43.61,0,*57
1486976521.67,13734,12.25,74206.0,-1.27,-43.41,-43.87,0,*5C
1486976522.92,13735,12.31,74206.5,-1.27,-43.21,-43.75,0,*56
1486976524.2,13736,12.25,74206.3,-1.27,-43.67,-44.13,0,*50
1486976525.46,13737,12.31,74206.5,-1.27,-43.09,-43.61,0,*5B
1486976526.69,13738,12.31,74210.0,-1.25,-42.83,-43.35,0,*54
1486976527.89,13739,12.25,74206.0,-1.25,-43.15,-43.61,0,*5A
1486976529.12,13740,12.31,74210.3,-1.25,-43.21,-43.61,0,*53
1486976530.37,13741,12.31,74204.3,-1.25,-42.83,-43.55,0,*5C
1486976531.6,13742,12.25,74202.5,-1.25,-43.01,-43.55,0,*54
1486976532.89,13743,12.25,74204.0,-1.23,-42.95,-43.55,0,*5F
1486976534.1,13744,12.25,74204.5,-1.21,-42.89,-43.35,0,*51
1486976535.33,13745,12.25,74206.0,-1.25,-43.15,-43.67,0,*57
1486976536.58,13746,12.25,74204.3,-1.25,-43.21,-43.67,0,*53
1486976537.81,13747,12.31,74210.5,-1.25,-43.81,-44.27,0,*5B
1486976539.07,13748,12.25,74202.3,-1.23,-43.61,-44.01,0,*58
1486976540.27,13749,12.31,74208.5,-1.25,-43.41,-44.07,0,*5B
1486976541.52,13750,12.25,74204.3,-1.23,-43.35,-43.81,0,*5F
1486976542.75,13751,12.25,74204.3,-1.25,-43.61,-44.21,0,*54
1486976544.01,13752,12.31,74210.5,-1.23,-43.55,-44.07,0,*52
1486976545.29,13753,12.31,74204.5,-1.23,-43.55,-44.21,0,*57
1486976546.55,13754,12.31,74210.3,-1.23,-43.15,-43.55,0,*50
1486976547.77,13755,12.31,74206.5,-1.25,-43.35,-43.81,0,*5C
1486976549.02,13756,12.31,74206.3,-1.23,-43.35,-43.81,0,*59
1486976550.22,13757,12.31,74208.8,-1.25,-43.41,-43.87,0,*5B
1486976551.47,13758,12.31,74204.0,-1.25,-43.67,-44.21,0,*5B
1486976552.67,13759,12.31,74206.8,-1.25,-43.41,-43.87,0,*55
1486976553.88,13760,12.31,74208.0,-1.25,-42.75,-43.35,0,*50
1486976555.14,13761,12.31,74210.3,-1.23,-43.15,-43.67,0,*57
1486976556.39,13762,12.31,74204.5,-1.23,-43.55,-44.07,0,*51
1486976557.62,13763,12.31,74206.3,-1.25,-43.21,-43.61,0,*52
1486976558.87,13764,12.31,74206.8,-1.23,-43.55,-43.87,0,*58
1486976560.12,13765,12.31,74204.8,-1.25,-43.21,-43.67,0,*52
1486976561.37,13766,12.31,74206.8,-1.23,-43.35,-43.81,0,*5A
1486976562.66,13767,12.31,74210.8,-1.23,-42.95,-43.55,0,*59
1486976563.86,13768,12.31,74204.5,-1.25,-43.35,-43.87,0,*54
1486976565.11,13769,12.31,74206.5,-1.23,-43.41,-43.81,0,*56
1486976566.34,13770,12.31,74206.8,-1.23,-43.15,-43.61,0,*51
1486976567.61,13771,12.31,74206.0,-1.23,-43.01,-43.55,0,*52
1486976568.86,13772,12.31,74206.5,-1.23,-43.15,-43.55,0,*54
1486976570.1,13773,12.31,74206.5,-1.23,-43.01,-43.61,0,*57
1486976571.36,13774,12.31,74204.8,-1.23,-43.35,-43.67,0,*51
1486976572.56,13775,12.31,74206.8,-1.21,-43.15,-43.75,0,*53
1486976573.81,13776,12.31,74204.8,-1.21,-43.29,-43.81,0,*54
1486976575.04,13777,12.31,74208.3,-1.21,-42.57,-43.15,0,*50
1486976576.27,13778,12.31,74206.5,-1.21,-43.15,-43.67,0,*5D
1486976577.48,13779,12.31,74208.3,-1.21,-43.49,-43.95,0,*58
1486976578.71,13780,12.25,74206.8,-1.21,-43.09,-43.49,0,*5B
1486976579.95,13781,12.25,74204.3,-1.21,-42.95,-43.49,0,*5E
1486976581.16,13782,12.31,74208.3,-1.21,-43.35,-43.95,0,*57
1486976582.39,13783,12.31,74210.5,-1.21,-43.01,-43.55,0,*5D
1486976583.62,13784,12.31,74208.3,-1.21,-43.49,-43.81,0,*5F
1486976584.85,13785,12.31,74210.3,-1.21,-43.29,-43.75,0,*53
1486976586.07,13786,12.31,74214.0,-1.21,-43.35,-43.81,0,*56
1486976587.3,13787,12.31,74210.5,-1.21,-43.55,-43.95,0,*54
1486976588.58,13788,12.31,74204.5,-1.19,-42.69,-43.29,0,*59
1486976589.81,13789,12.31,74210.3,-1.21,-43.29,-43.75,0,*5F
1486976591.06,13790,12.31,74208.5,-1.21,-43.55,-44.01,0,*58
1486976592.29,13791,12.31,74206.8,-1.21,-43.49,-44.01,0,*54
1486976593.57,13792,12.31,74210.3,-1.19,-43.55,-44.13,0,*52
1486976594.8,13793,12.31,74208.5,-1.21,-43.75,-44.13,0,*5A
1486976596.03,13794,12.31,74208.0,-1.21,-43.29,-43.61,0,*56
1486976597.23,13795,12.31,74208.5,-1.21,-43.15,-43.61,0,*58
1486976598.44,13796,12.31,74208.3,-1.21,-43.15,-43.75,0,*5E
1486976599.71,13797,12.31,74208.8,-1.19,-43.21,-43.67,0,*50
1486976600.95,13798,12.31,74206.3,-1.21,-43.29,-43.95,0,*51
1486976602.18,13799,12.31,74206.3,-1.21,-43.61,-44.33,0,*57
1486976603.39,13800,12.31,74210.8,-1.21,-43.49,-43.95,0,*59
1486976604.59,13801,12.31,74208.5,-1.21,-43.15,-43.75,0,*5F
1486976605.79,13802,12.31,74208.3,-1.21,-43.15,-43.61,0,*59
1486976607.05,13803,12.31,74210.8,-1.19,-42.83,-43.35,0,*5C
1486976608.31,13804,12.31,74210.0,-1.19,-43.55,-43.95,0,*5B
1486976609.54,13805,12.31,74208.5,-1.19,-43.01,-43.49,0,*5A
1486976610.79,13806,12.31,74208.0,-1.19,-43.55,-44.07,0,*55
1486976612.05,13807,12.31,74214.5,-1.19,-42.63,-43.09,0,*59
1486976613.3,13808,12.31,74208.3,-1.19,-43.49,-44.13,0,*53
1486976614.55,13809,12.31,74206.8,-1.19,-43.75,-44.47,0,*5C
1486976615.8,13810,12.31,74206.3,-1.19,-43.29,-43.87,0,*56
1486976617.06,13811,12.31,74210.8,-1.19,-42.69,-43.35,0,*5B
1486976618.29,13812,12.31,74208.5,-1.21,-42.95,-43.49,0,*5B
1486976619.55,13813,12.31,74206.5,-1.19,-43.09,-43.49,0,*55
1486976620.78,13814,12.31,74208.5,-1.19,-43.41,-43.75,0,*51
1486976622.01,13815,12.31,74204.0,-1.17,-43.01,-43.55,0,*58
1486976623.24,13816,12.31,74210.5,-1.21,-43.29,-43.75,0,*56
1486976624.5,13817,12.31,74212.8,-1.17,-43.09,-43.55,0,*52
1486976625.76,13818,12.31,74206.5,-1.19,-43.75,-44.33,0,*5F
1486976627.01,13819,12.31,74210.3,-1.19,-43.29,-44.07,0,*50
1486976628.28,13820,12.31,74210.5,-1.19,-42.83,-43.29,0,*50
1486976629.49,13821,12.31,74210.5,-1.21,-42.75,-43.35,0,*5E
1486976630.78,13822,12.31,74212.0,-1.19,-43.09,-43.67,0,*5B
1486976632.0,13823,12.31,74208.0,-1.19,-43.41,-43.87,0,*58
1486976633.21,13824,12.31,74210.8,-1.17,-43.01,-43.49,0,*57
1486976634.46,13825,12.31,74208.3,-1.17,-43.21,-43.55,0,*59
1486976635.67,13826,12.31,74208.8,-1.15,-43.87,-44.41,0,*56
1486976636.87,13827,12.31,74206.5,-1.17,-43.49,-43.87,0,*5A
1486976638.1,13828,12.31,74206.5,-1.19,-43.49,-43.95,0,*58
1486976639.33,13829,12.31,74210.3,-1.17,-43.29,-43.75,0,*5F
1486976640.56,13830,12.31,74208.8,-1.15,-43.15,-43.67,0,*59
1486976641.79,13831,12.31,74208.8,-1.17,-42.51,-43.09,0,*53
1486976643.05,13832,12.31,74210.5,-1.17,-42.69,-43.09,0,*5B
1486976644.31,13833,12.31,74206.8,-1.17,-43.09,-43.67,0,*55
1486976645.53,13834,12.31,74206.0,-1.17,-43.29,-43.75,0,*53
1486976646.75,13835,12.31,74210.3,-1.17,-43.15,-43.81,0,*56
1486976648.0,13836,12.31,74210.3,-1.15,-43.21,-43.81,0,*50
1486976649.21,13837,12.31,74206.8,-1.17,-43.41,-44.07,0,*5C
1486976650.44,13838,12.31,74208.5,-1.17,-43.01,-43.55,0,*57
1486976651.67,13839,12.31,74208.5,-1.17,-43.29,-43.49,0,*51
1486976652.93,13840,12.31,74208.8,-1.17,-43.09,-43.55,0,*50
1486976654.16,13841,12.31,74206.8,-1.15,-42.45,-43.15,0,*5E
1486976655.41,13842,12.31,74212.3,-1.15,-42.95,-43.41,0,*51
1486976656.62,13843,12.31,74212.3,-1.15,-43.35,-43.87,0,*51
1486976657.83,13844,12.31,74212.0,-1.15,-43.41,-43.87,0,*55
1486976659.08,13845,12.31,74210.5,-1.17,-42.83,-43.29,0,*5D
1486976660.32,13846,12.31,74210.5,-1.15,-42.95,-43.61,0,*57
1486976661.54,13847,12.31,74208.5,-1.15,-43.01,-43.41,0,*58
1486976662.78,13848,12.31,74210.0,-1.15,-43.35,-43.67,0,*54
1486976664.0,13849,12.31,74208.3,-1.15,-43.41,-44.07,0,*57
1486976665.21,13850,12.31,74214.8,-1.15,-43.41,-44.07,0,*5F
1486976666.44,13851,12.31,74206.0,-1.17,-43.67,-44.27,0,*5A
1486976667.65,13852,12.31,74206.5,-1.15,-43.15,-43.61,0,*5B
1486976668.89,13853,12.31,74212.8,-1.15,-42.95,-43.49,0,*59
1486976670.1,13854,12.31,74208.0,-1.15,-43.15,-43.49,0,*57
1486976671.35,13855,12.31,74208.8,-1.15,-42.95,-43.41,0,*57
1486976672.61,13856,12.31,74210.3,-1.13,-43.21,-43.61,0,*5E
1486976673.9,13857,12.31,74208.0,-1.13,-42.45,-42.95,0,*56
1486976675.17,13858,12.31,74212.5,-1.13,-42.95,-43.41,0,*5C
1486976676.41,13859,12.31,74210.8,-1.13,-43.01,-43.61,0,*53
1486976677.65,13860,12.31,74210.5,-1.13,-42.63,-43.15,0,*5F
1486976678.91,13861,12.31,74210.5,-1.13,-42.83,-43.41,0,*51
1486976680.12,13862,12.31,74212.3,-1.11,-43.15,-43.61,0,*5C
1486976681.36,13863,12.31,74214.0,-1.11,-42.95,-43.41,0,*56
1486976682.62,13864,12.31,74214.0,-1.11,-42.57,-43.09,0,*53
1486976683.9,13865,12.31,74210.0,-1.13,-43.21,-43.81,0,*50
1486976685.12,13866,12.31,74212.0,-1.11,-43.35,-43.81,0,*54
1486976686.36,13867,12.31,74210.8,-1.11,-43.15,-43.55,0,*5E
1486976687.57,13868,12.31,74212.8,-1.11,-42.51,-43.15,0,*54
1486976688.8,13869,12.31,74208.0,-1.11,-42.57,-43.15,0,*53
1486976690.05,13870,12.31,74210.8,-1.07,-42.95,-43.41,0,*53
1486976691.26,13871,12.31,74210.3,-1.07,-42.75,-43.15,0,*5D
1486976692.52,13872,12.31,74208.5,-1.05,-42.51,-43.09,0,*57
1486976693.76,13873,12.31,74208.0,-1.07,-43.15,-43.55,0,*5C
1486976694.99,13874,12.31,74210.0,-1.05,-42.89,-43.49,0,*50
1486976696.23,13875,12.31,74210.3,-1.07,-43.15,-43.55,0,*5A
1486976697.46,13876,12.31,74212.8,-1.07,-42.69,-43.15,0,*57
1486976698.73,13877,12.31,74212.3,-1.05,-42.83,-43.35,0,*52
1486976700.01,13878,12.31,74212.5,-1.05,-43.21,-43.55,0,*52
1486976701.25,13879,12.31,74212.8,-1.05,-43.87,-44.47,0,*5B
1486976702.49,13880,12.31,74210.3,-1.05,-43.01,-43.49,0,*5A
1486976703.7,13881,12.31,74210.8,-1.07,-43.35,-43.95,0,*5F
1486976704.96,13882,12.31,74212.5,-1.05,-43.21,-43.49,0,*5A
1486976706.22,13883,12.31,74212.8,-1.07,-43.55,-44.21,0,*53
1486976707.45,13884,12.31,74208.8,-1.05,-43.49,-43.87,0,*50
1486976708.71,13885,12.31,74210.5,-1.05,-42.63,-43.09,0,*5E
1486976709.99,13886,12.31,74212.8,-1.05,-42.69,-43.21,0,*5D
1486976711.25,13887,12.31,74212.5,-1.05,-42.31,-42.89,0,*52
1486976712.53,13888,12.31,74212.3,-1.05,-42.83,-43.21,0,*57
1486976713.81,13889,12.31,74208.8,-1.05,-42.69,-43.21,0,*52
1486976715.07,13890,12.31,74214.0,-1.03,-43.21,-43.67,0,*53
1486976716.32,13891,12.31,74214.3,-1.03,-42.83,-43.21,0,*59
1486976717.53,13892,12.31,74214.8,-1.03,-42.89,-43.49,0,*5E
1486976718.77,13893,12.31,74214.8,-1.03,-43.09,-43.35,0,*5D
1486976720.0,13894,12.31,74212.5,-1.03,-42.63,-43.21,0,*52
1486976721.23,13895,12.31,74212.5,-1.03,-42.89,-43.29,0,*5F
1486976722.44,13896,12.31,74210.5,-1.03,-43.35,-43.87,0,*5E
1486976723.67,13897,12.31,74208.8,-1.03,-42.83,-43.35,0,*5A
1486976724.92,13898,12.31,74212.8,-1.01,-43.21,-43.87,0,*57
1486976726.17,13899,12.31,74212.3,-1.01,-43.01,-43.61,0,*5C
1486976727.4,13900,12.31,74210.8,-1.01,-43.15,-43.61,0,*58
1486976728.64,13901,12.31,74214.5,-1.01,-43.01,-43.61,0,*5C
1486976729.9,13902,12.31,74212.5,-1.01,-43.15,-43.67,0,*5C
1486976731.14,13903,12.31,74208.3,-1.03,-42.89,-43.29,0,*51
1486976732.39,13904,12.31,74214.0,-0.99,-42.83,-43.29,0,*6E
1486976733.6,13905,12.31,74210.8,-1.03,-42.89,-43.49,0,*51
1486976734.87,13906,12.31,74208.0,-1.01,-42.95,-43.41,0,*55
1486976736.13,13907,12.31,74212.8,-1.01,-43.41,-44.01,0,*5F
1486976737.41,13908,12.31,74214.0,-1.01,-43.21,-43.67,0,*51
1486976738.64,13909,12.31,74216.3,-1.01,-43.15,-43.61,0,*51
1486976739.88,13910,12.31,74216.0,-1.03,-42.31,-43.01,0,*5A
1486976741.11,13911,12.31,74214.3,-1.01,-43.15,-43.49,0,*52
1486976742.36,13912,12.31,74216.0,-1.01,-43.01,-43.49,0,*54
1486976743.63,13913,12.31,74216.3,-1.01,-43.21,-43.81,0,*53
1486976744.87,13914,12.31,74214.5,-1.01,-43.01,-43.61,0,*58
1486976746.11,13915,12.31,74210.8,-1.01,-42.63,-43.01,0,*5A
1486976747.39,13916,12.31,74214.0,-1.01,-42.83,-43.29,0,*5D
1486976748.62,13917,12.31,74212.5,-0.99,-42.75,-43.21,0,*6D
1486976749.85,13918,12.31,74212.3,-0.99,-42.95,-43.49,0,*62
1486976751.08,13919,12.31,74212.5,-0.99,-43.15,-43.67,0,*66
1486976752.31,13920,12.31,74212.5,-0.99,-43.81,-44.27,0,*62
1486976753.51,13921,12.31,74210.8,-0.99,-43.15,-43.61,0,*6B
1486976754.73,13922,12.31,74218.3,-0.99,-43.29,-43.87,0,*6F
1486976755.94,13923,12.31,74212.8,-0.99,-43.01,-43.49,0,*66
1486976757.17,13924,12.31,74216.0,-0.99,-43.41,-44.01,0,*6E
1486976758.37,13925,12.31,74210.8,-0.99,-43.15,-43.61,0,*6F
1486976759.61,13926,12.31,74216.0,-0.99,-43.01,-43.67,0,*6F
1486976760.87,13927,12.31,74214.5,-0.97,-42.95,-43.41,0,*68
1486976762.08,13928,12.31,74214.8,-0.99,-43.15,-43.61,0,*62
1486976763.32,13929,12.31,74210.5,-0.97,-43.35,-43.81,0,*61
1486976764.55,13930,12.31,74218.3,-0.97,-43.35,-43.95,0,*6C
1486976765.79,13931,12.31,74214.3,-0.99,-44.01,-44.47,0,*6B
1486976767.02,13932,12.31,74216.3,-0.99,-43.41,-44.01,0,*69
1486976768.28,13933,12.31,74214.5,-0.97,-42.51,-43.09,0,*69
1486976769.51,13934,12.31,74216.5,-0.99,-42.95,-43.41,0,*64
1486976770.73,13935,12.31,74214.8,-0.99,-43.15,-43.81,0,*60
1486976771.96,13936,12.31,74212.8,-0.97,-43.15,-43.61,0,*63
1486976773.18,13937,12.31,74216.0,-0.99,-43.15,-43.81,0,*62
1486976774.41,13938,12.31,74218.8,-0.99,-43.15,-43.67,0,*65
1486976775.64,13939,12.31,74214.8,-0.99,-43.49,-44.01,0,*6A
1486976776.86,13940,12.31,74212.5,-0.99,-43.67,-44.27,0,*6C
1486976778.11,13941,12.31,74214.3,-0.99,-43.29,-44.01,0,*63
1486976779.37,13942,12.38,74218.0,-0.99,-43.67,-44.21,0,*68
1486976780.6,13943,12.31,74212.8,-0.99,-43.49,-44.01,0,*67
1486976781.84,13944,12.31,74214.5,-0.99,-43.29,-43.81,0,*69
1486976783.05,13945,12.31,74216.8,-0.99,-43.15,-43.61,0,*69
1486976784.25,13946,12.38,74218.8,-0.99,-43.15,-43.49,0,*60
1486976785.49,13947,12.31,74216.3,-0.99,-43.21,-43.81,0,*62
1486976786.74,13948,12.31,74212.3,-0.99,-43.21,-43.67,0,*65
1486976788.0,13949,12.31,74216.5,-0.99,-43.09,-43.55,0,*6F
1486976789.27,13950,12.31,74218.3,-0.97,-43.55,-43.81,0,*69
1486976790.49,13951,12.31,74216.8,-0.99,-43.21,-43.87,0,*63
1486976791.72,13952,12.31,74214.5,-0.97,-43.15,-43.75,0,*64
1486976792.94,13953,12.31,74212.0,-0.99,-43.21,-43.61,0,*69
1486976794.19,13954,12.31,74216.3,-0.97,-43.21,-43.75,0,*65
1486976795.4,13955,12.31,74216.8,-0.99,-43.01,-43.49,0,*67
1486976796.66,13956,12.31,74218.0,-0.97,-42.95,-43.41,0,*6E
1486976797.91,13957,12.31,74214.0,-0.99,-43.29,-44.01,0,*64
1486976799.17,13958,12.31,74214.5,-0.97,-43.09,-43.35,0,*67
1486976800.43,13959,12.31,74216.5,-0.97,-43.09,-43.61,0,*67
1486976801.68,13960,12.31,74212.8,-0.99,-42.95,-43.29,0,*6B
1486976802.96,13961,12.31,74218.3,-0.97,-42.69,-43.21,0,*6F
1486976804.2,13962,12.31,74218.3,-0.97,-43.15,-43.81,0,*6C
1486976805.43,13963,12.31,74218.8,-0.97,-43.35,-43.95,0,*6A
1486976806.68,13964,12.31,74214.5,-0.97,-43.41,-44.01,0,*64
1486976807.96,13965,12.31,74216.3,-0.97,-43.81,-44.21,0,*6B
1486976809.21,13966,12.31,74214.3,-0.97,-43.61,-44.13,0,*67
1486976810.48,13967,12.31,74214.5,-0.97,-43.21,-43.81,0,*6E
1486976811.73,13968,12.31,74214.3,-0.97,-42.75,-43.21,0,*6B
1486976812.96,13969,12.31,74216.0,-0.99,-43.41,-44.01,0,*67
1486976814.17,13970,12.31,74218.0,-0.99,-43.01,-43.61,0,*6A
1486976815.42,13971,12.31,74218.5,-0.97,-43.35,-44.01,0,*63
1486976816.64,13972,12.31,74218.5,-0.95,-43.41,-44.01,0,*61
1486976817.89,13973,12.31,74214.5,-0.97,-43.21,-43.95,0,*6E
1486976819.16,13974,12.31,74218.0,-0.97,-42.95,-43.41,0,*6E
1486976820.41,13975,12.31,74214.5,-0.97,-43.09,-43.35,0,*68
1486976821.64,13976,12.31,74214.0,-0.97,-42.89,-43.35,0,*62
1486976822.9,13977,12.31,74218.3,-0.97,-43.61,-44.21,0,*66
1486976824.15,13978,12.31,74214.3,-0.97,-43.41,-44.01,0,*69
1486976825.37,13979,12.31,74218.5,-0.99,-44.07,-44.67,0,*63
1486976826.6,13980,12.31,74218.3,-0.97,-43.75,-44.41,0,*6D
1486976827.85,13981,12.31,74218.8,-0.97,-43.75,-44.13,0,*6B
1486976829.08,13982,12.31,74218.3,-0.99,-43.41,-44.01,0,*62
1486976830.35,13983,12.31,74218.5,-0.97,-43.55,-44.01,0,*68
1486976831.6,13984,12.31,74222.3,-0.97,-43.21,-43.61,0,*6D
1486976832.87,13985,12.31,74214.5,-0.97,-43.55,-44.13,0,*6D
1486976834.1,13986,12.31,74216.3,-0.97,-42.75,-43.15,0,*6C
1486976835.35,13987,12.31,74218.5,-0.97,-43.75,-44.33,0,*6F
1486976836.61,13988,12.31,74218.8,-0.97,-43.61,-44.13,0,*67
1486976837.85,13989,12.31,74218.8,-0.97,-43.35,-44.01,0,*64
1486976839.11,13990,12.31,74214.5,-0.99,-43.21,-43.67,0,*60
1486976840.35,13991,12.31,74214.5,-0.99,-44.01,-44.47,0,*61
1486976841.58,13992,12.31,74216.0,-0.99,-44.21,-44.53,0,*65
1486976842.84,13993,12.31,74216.0,-0.97,-42.95,-43.41,0,*67
1486976844.09,13994,12.31,74214.8,-0.97,-43.41,-44.01,0,*6B
1486976845.32,13995,12.31,74218.5,-0.99,-43.15,-43.55,0,*63
1486976846.55,13996,12.31,74214.3,-0.97,-43.15,-43.75,0,*6C
1486976847.79,13997,12.31,74216.3,-0.97,-43.81,-44.41,0,*60
1486976849.02,13998,12.31,74218.3,-0.99,-43.29,-43.87,0,*6E
1486976850.25,13999,12.31,74216.3,-0.99,-43.61,-44.21,0,*68
1486976851.53,14000,12.31,74218.0,-0.97,-43.09,-43.55,0,*62
1486976852.78,14001,12.38,74220.8,-0.97,-43.15,-43.81,0,*67
1486976854.05,14002,12.31,74214.5,-0.97,-43.55,-44.13,0,*6C
1486976855.28,14003,12.31,74218.8,-0.95,-42.69,-43.15,0,*60
1486976856.53,14004,12.31,74216.8,-0.97,-43.09,-43.75,0,*64
1486976857.76,14005,12.31,74220.5,-0.99,-43.29,-43.87,0,*64
1486976859.01,14006,12.31,74214.3,-0.99,-44.21,-44.67,0,*61
1486976860.26,14007,12.31,74216.0,-0.97,-43.75,-44.21,0,*6A
1486976861.51,14008,12.31,74216.0,-0.97,-43.55,-43.95,0,*6F
1486976862.74,14009,12.31,74216.8,-0.99,-43.41,-43.81,0,*60
1486976863.97,14010,12.31,74218.8,-0.97,-43.01,-43.49,0,*66
1486976865.2,14011,12.31,74218.3,-0.99,-43.41,-44.01,0,*66
1486976866.47,14012,12.31,74214.8,-0.97,-43.81,-44.47,0,*65
1486976867.68,14013,12.31,74216.0,-0.99,-43.87,-44.47,0,*6C
1486976868.94,14014,12.31,74216.5,-0.97,-43.75,-44.21,0,*68
1486976870.14,14015,12.31,74216.3,-0.99,-43.49,-44.07,0,*6C
1486976871.4,14016,12.31,74218.0,-0.97,-43.61,-44.21,0,*6F
1486976872.62,14017,12.31,74218.8,-0.99,-43.29,-43.87,0,*67
1486976873.85,14018,12.31,74216.8,-0.97,-42.89,-43.15,0,*66
1486976875.1,14019,12.31,74216.0,-0.97,-42.57,-43.15,0,*64
1486976876.3,14020,12.31,74216.0,-0.99,-43.41,-43.87,0,*6D
1486976877.54,14021,12.31,74216.8,-0.99,-43.61,-44.21,0,*65
1486976878.76,14022,12.31,74216.3,-0.97,-43.15,-43.61,0,*68
1486976880.01,14023,12.31,74218.5,-0.97,-43.41,-44.01,0,*69
1486976881.22,14024,12.31,74218.8,-0.99,-43.49,-44.07,0,*6E
1486976882.47,14025,12.31,74218.3,-0.97,-43.21,-43.95,0,*63
1486976883.71,14026,12.31,74216.0,-0.97,-43.21,-43.75,0,*6E
1486976884.94,14027,12.31,74216.3,-0.99,-43.29,-43.87,0,*64
1486976886.17,14028,12.31,74216.0,-0.97,-43.41,-43.95,0,*68
1486976887.45,14029,12.31,74218.3,-0.97,-43.09,-43.67,0,*68
1486976888.65,14030,12.31,74218.3,-0.99,-43.15,-43.61,0,*65
1486976889.9,14031,12.31,74218.8,-0.97,-43.41,-43.81,0,*65
1486976891.16,14032,12.31,74218.0,-0.97,-43.09,-43.61,0,*64
1486976892.42,14033,12.31,74218.5,-0.97,-43.21,-43.81,0,*61
1486976893.67,14034,12.31,74216.5,-0.97,-42.89,-43.21,0,*6F
1486976894.94,14035,12.31,74216.0,-0.97,-43.21,-43.81,0,*67
1486976896.19,14036,12.31,74216.8,-0.97,-43.35,-44.01,0,*6E